Florala, AL

7:07 AM CST on January 23, 2018 (GMT -0600)
Florala

Weather History for K0J4 - February, 2014

Change the Weather History Date:

Wednesday, February 19, 2014

  Actual Average (KCEW) Record (KCEW)
Temperature  
Mean Temperature 65 °F -  
Max Temperature 75 °F 67 °F 81 °F (2017)
Min Temperature 55 °F 42 °F 21 °F (2007)
Growing Degree Days 15 (Base 50)    
Moisture  
Dew Point 61 °F    
Average Humidity 86    
Maximum Humidity 100    
Minimum Humidity 61    
Precipitation  
Precipitation 0.00 in - - ()
Sea Level Pressure  
Sea Level Pressure 30.10 in    
Wind  
Wind Speed 5 mph (SSW)    
Max Wind Speed 14 mph    
Max Gust Speed 17 mph    
Visibility 7 miles    
Events      
Averages and records for this station are not official NWS values.
T = Trace of Precipitation, MM = Missing Value Source: NWS Daily Summary

Daily Weather History Graph

Daily Weather History Graph

Search for Another Location

Airport or City:

Trip Planner

Search our weather history database for the weather conditions in past years. The results will help you decide how hot, cold, wet, or windy it might be!

Date:

Astronomy

Feb. 19, 2014 Rise Set
Actual Time 6:22 AM CST 5:36 PM CST
Civil Twilight 5:57 AM CST 6:00 PM CST
Nautical Twilight 5:29 AM CST 6:28 PM CST
Astronomical Twilight 5:01 AM CST 6:57 PM CST
Moon 10:06 PM CST (2/19) 8:48 AM CST (2/19)
Length of Visible Light 12h 02m
Length of Day
11h 13m
Waning Gibbous, 79% of the Moon is Illuminated
Feb 19
Waning Gibbous
Feb 22
Last Quarter
Mar 1
New
Mar 8
First Quarter
Mar 16
Full

Hourly Weather History & Observations

Time (CST) Temp. Dew Point Humidity Pressure Visibility Wind Dir Wind Speed Gust Speed Precip Events Conditions
12:58 AM 57.9 °F 55.9 °F 93% 30.12 in 10.0 mi Calm Calm - N/A   Clear
1:23 AM 55.4 °F 53.6 °F 94% 30.13 in 10.0 mi Calm Calm - N/A   Partly Cloudy
1:32 AM 55.4 °F 53.6 °F 94% 30.12 in 6.0 mi South 3.5 mph - N/A   Mostly Cloudy
1:58 AM 57.9 °F 57.0 °F 97% 30.11 in 9.0 mi SSW 4.6 mph - N/A   Overcast
2:03 AM 59.0 °F 57.2 °F 94% 30.12 in 7.0 mi SW 3.5 mph - N/A   Overcast
2:28 AM 60.8 °F 59.0 °F 94% 30.11 in 2.0 mi SW 4.6 mph - N/A   Overcast
2:33 AM 60.8 °F 59.0 °F 94% 30.11 in 1.5 mi SSW 4.6 mph - N/A   Overcast
2:58 AM 61.0 °F 59.0 °F 93% 30.09 in 2.0 mi SSW 6.9 mph - N/A   Overcast
3:14 AM 60.8 °F 60.8 °F 100% 30.09 in 1.5 mi SSW 6.9 mph - N/A   Overcast
3:32 AM 60.8 °F 60.8 °F 100% 30.09 in 0.8 mi SSW 5.8 mph - N/A   Mist
3:56 AM 62.6 °F 60.8 °F 94% 30.09 in 1.0 mi SSW 9.2 mph - N/A   Mist
3:58 AM 62.1 °F 61.0 °F 96% 30.09 in 0.8 mi SSW 8.1 mph - N/A   Mist
4:08 AM 62.6 °F 60.8 °F 94% 30.10 in 1.0 mi SW 4.6 mph - N/A   Mist
4:58 AM 62.1 °F 61.0 °F 96% 30.11 in 1.0 mi Calm Calm - N/A   Overcast
5:14 AM 62.6 °F 60.8 °F 94% 30.12 in 0.8 mi Calm Calm - N/A   Mist
5:35 AM 62.6 °F 60.8 °F 94% 30.13 in 1.0 mi Calm Calm - N/A   Mist
5:46 AM 62.6 °F 60.8 °F 94% 30.14 in 2.5 mi Calm Calm - N/A   Overcast
5:51 AM 62.6 °F 60.8 °F 94% 30.14 in 3.0 mi Calm Calm - N/A   Overcast
5:58 AM 62.1 °F 61.0 °F 96% 30.14 in 4.0 mi SW 3.5 mph - N/A   Overcast
6:19 AM 62.6 °F 60.8 °F 94% 30.14 in 2.5 mi Calm Calm - N/A   Overcast
6:23 AM 62.6 °F 60.8 °F 94% 30.14 in 3.0 mi Calm Calm - N/A   Overcast
6:58 AM 63.0 °F 62.1 °F 97% 30.14 in 3.0 mi South 4.6 mph - N/A   Overcast
7:03 AM 62.6 °F 62.6 °F 100% 30.15 in 2.5 mi SSW 3.5 mph - N/A   Overcast
7:21 AM 62.6 °F 62.6 °F 100% 30.15 in 1.5 mi SSW 4.6 mph - N/A   Overcast
7:58 AM 63.0 °F 62.1 °F 97% 30.14 in 2.0 mi SSW 6.9 mph - N/A   Overcast
8:03 AM 62.6 °F 62.6 °F 100% 30.15 in 5.0 mi SSW 5.8 mph - N/A   Overcast
8:10 AM 62.6 °F 62.6 °F 100% 30.15 in 8.0 mi SSW 5.8 mph - N/A   Overcast
8:58 AM 66.0 °F 63.0 °F 90% 30.14 in 10.0 mi South 5.8 mph - N/A   Overcast
9:27 AM 68.0 °F 62.6 °F 83% 30.15 in 10.0 mi SSW 4.6 mph - N/A   Mostly Cloudy
9:31 AM 69.8 °F 60.8 °F 73% 30.15 in 10.0 mi SSW 6.9 mph - N/A   Mostly Cloudy
9:58 AM 71.1 °F 61.0 °F 70% 30.14 in 10.0 mi South 8.1 mph - N/A   Mostly Cloudy
10:58 AM 73.9 °F 62.1 °F 66% 30.13 in 10.0 mi SSW 11.5 mph 17.3 mph N/A   Mostly Cloudy
11:09 AM 75.2 °F 60.8 °F 61% 30.13 in 10.0 mi SSW 12.7 mph 16.1 mph N/A   Mostly Cloudy
11:53 AM 75.2 °F 62.6 °F 65% 30.10 in 10.0 mi Variable 3.5 mph - N/A   Overcast
11:58 AM 73.9 °F 62.1 °F 66% 30.09 in 10.0 mi Variable 4.6 mph - N/A   Overcast
12:11 PM 75.2 °F 62.6 °F 65% 30.09 in 10.0 mi Variable 4.6 mph - N/A   Overcast
12:58 PM 73.0 °F 62.1 °F 68% 30.07 in 10.0 mi SW 8.1 mph - N/A   Mostly Cloudy
1:05 PM 73.4 °F 62.6 °F 69% 30.08 in 10.0 mi SW 9.2 mph 16.1 mph N/A   Mostly Cloudy
1:24 PM 75.2 °F 62.6 °F 65% 30.07 in 10.0 mi SSW 13.8 mph - N/A   Mostly Cloudy
1:58 PM 75.9 °F 62.1 °F 62% 30.05 in 10.0 mi SSW 12.7 mph - N/A   Clear
2:58 PM 75.0 °F 61.0 °F 62% 30.04 in 10.0 mi SSW 10.4 mph - N/A   Partly Cloudy
3:58 PM 75.0 °F 61.0 °F 62% 30.04 in 10.0 mi SSW 10.4 mph - N/A   Clear
4:58 PM 72.0 °F 62.1 °F 71% 30.04 in 10.0 mi SSW 9.2 mph - N/A   Clear
5:58 PM 68.0 °F 62.1 °F 81% 30.06 in 10.0 mi SSW 10.4 mph - N/A   Partly Cloudy
6:11 PM 68.0 °F 62.6 °F 83% 30.06 in 10.0 mi SSW 10.4 mph - N/A   Mostly Cloudy
6:58 PM 66.9 °F 63.0 °F 87% 30.07 in 10.0 mi SSW 9.2 mph - N/A   Overcast
7:45 PM 66.2 °F 62.6 °F 88% 30.08 in 10.0 mi South 8.1 mph - N/A   Overcast
7:58 PM 66.9 °F 63.0 °F 87% 30.08 in 10.0 mi SSW 10.4 mph - N/A   Overcast
8:58 PM 66.0 °F 63.0 °F 90% 30.09 in 10.0 mi SSW 11.5 mph - N/A   Overcast
9:58 PM 66.0 °F 63.0 °F 90% 30.08 in 10.0 mi South 4.6 mph - N/A   Overcast
10:58 PM 66.0 °F 63.0 °F 90% 30.06 in 10.0 mi South 8.1 mph - N/A   Overcast
11:58 PM 64.9 °F 62.1 °F 90% 30.06 in 10.0 mi South 8.1 mph - N/A   Overcast